DW6157 Weather Reports


Display with metric or nautical units.
time (UTC)temp
F
wind
direction
speed
MPH
gust
MPH
rain 1hr
in
rain 24hr
in
rain mn
in
humidity
%
barometer
mb
20260906134526 67 195 4.0 10.0 0.00 0.04 0.00 66 1016.5
20260906133024 68 222 4.0 11.0 0.00 0.04 0.00 63 1016.5
20260906131523 69 219 4.0 12.0 0.00 0.04 0.00 60 1016.6
20260906130023 69 225 6.0 12.0 0.00 0.04 0.00 61 1016.4
20260906124522 69 190 8.0 13.0 0.00 0.10 0.00 61 1016.5
20260906123023 70 210 6.0 12.0 0.00 0.10 0.00 59 1016.5
20260906121520 70 200 2.0 12.0 0.00 0.10 0.00 57 1016.6
20260906120019 70 285 0.0 7.0 0.00 0.10 0.00 53 1016.6
20260906114534 69 296 1.0 10.0 0.00 0.36 0.00 55 1016.5
20260906113020 68 247 0.0 5.0 0.00 0.36 0.00 57 1016.6
20260906111513 69 247 0.0 0.0 0.00 0.36 0.00 59 1016.5
20260906110014 68 335 0.0 2.0 0.00 0.36 0.00 57 1016.5
20260906104517 68 231 0.0 9.0 0.00 0.39 0.00 61 1016.6
20260906103009 68 227 0.0 6.0 0.00 0.39 0.00 63 1016.5
20260906101518 68 291 0.0 4.0 0.00 0.39 0.00 61 1016.4
20260906100005 67 205 1.0 5.0 0.00 0.39 0.00 64 1016.5
20260906094504 66 269 0.0 6.0 0.00 0.39 0.00 63 1016.4
20260906093103 66 251 0.0 5.0 0.00 0.39 0.00 64 1016.3
20260906091600 65 300 0.0 5.0 0.00 0.39 0.00 66 1016.3
20260906090059 65 333 0.0 0.0 0.00 0.39 0.00 66 1016.3
20260906084554 64 312 0.0 7.0 0.00 0.39 0.00 66 1016.1
20260906083053 63 310 1.0 8.0 0.00 0.39 0.00 67 1016.1
20260906081548 63 327 0.0 5.0 0.00 0.39 0.00 70 1015.9
20260906080047 62 4 0.0 6.0 0.00 0.39 0.00 71 1015.8
20260906074542 61 314 0.0 6.0 0.00 0.39 0.00 71 1015.6
20260906073038 60 328 0.0 7.0 0.00 0.39 0.00 74 1015.6
20260906071534 60 316 0.0 4.0 0.00 0.39 0.00 76 1015.5
20260906070031 59 339 0.0 1.0 0.00 0.39 0.00 77 1015.4
20260906064528 58 326 0.0 3.0 0.00 0.39 0.00 77 1015.2
20260906063026 57 293 0.0 5.0 0.00 0.39 0.00 77 1015.0
20260906061523 57 312 1.0 8.0 0.00 0.39 0.00 78 1014.9
20260906060026 56 317 0.0 4.0 0.00 0.39 0.00 80 1015.0
20260906054530 55 283 0.0 2.0 0.00 0.39 0.00 83 1014.7
20260906053013 53 303 0.0 2.0 0.00 0.39 0.00 87 1014.6
20260906051512 51 301 0.0 0.0 0.00 0.39 0.00 89 1014.5
20260906050010 49 301 0.0 0.0 0.00 0.39 0.00 89 1014.3
20260906044509 49 301 0.0 0.0 0.00 0.43 0.00 88 1014.1
20260906043013 50 301 0.0 0.0 0.00 0.43 0.00 87 1013.9
20260906041503 51 301 0.0 0.0 0.00 0.43 0.00 85 1013.7
20260906040001 52 301 0.0 0.0 0.00 0.43 0.00 84 1013.6
20260906034606 52 301 0.0 2.0 0.00 0.49 0.00 83 1013.5
20260906033106 52 294 0.0 0.0 0.00 0.49 0.00 83 1013.4
20260906031555 53 332 0.0 0.0 0.00 0.49 0.00 83 1013.2
20260906030054 53 326 0.0 3.0 0.00 0.49 0.00 83 1012.9
20260906024609 53 314 0.0 3.0 0.00 0.49 0.00 83 1012.9
20260906023100 53 315 0.0 3.0 0.00 0.49 0.00 83 1012.7
20260906021549 53 300 0.0 3.0 0.00 0.49 0.00 83 1012.5
20260906020047 53 322 0.0 1.0 0.00 0.49 0.00 84 1012.3
20260906014547 53 320 0.0 3.0 0.00 0.49 0.00 84 1012.2
20260906013045 53 312 0.0 0.0 0.00 0.49 0.00 85 1012.3
20260906011544 53 312 0.0 0.0 0.00 0.49 0.00 86 1012.3
20260906010043 52 296 0.0 2.0 0.00 0.49 0.00 87 1012.1
20260906004541 51 308 0.0 0.0 0.00 0.49 0.00 88 1011.8
20260906003038 52 315 0.0 1.0 0.00 0.49 0.00 87 1011.6
20260906001538 53 314 0.0 0.0 0.00 0.49 0.00 86 1011.3
20260906000034 53 314 0.0 0.0 0.00 0.49 0.00 87 1011.2
20260905234533 52 308 0.0 0.0 0.00 0.49 0.00 89 1011.1
20260905233030 51 308 0.0 0.0 0.00 0.49 0.00 90 1010.9
20260905231529 51 328 0.0 0.0 0.00 0.49 0.00 90 1010.8
20260905230026 52 330 0.0 0.0 0.00 0.49 0.00 89 1010.5
20260905224557 52 330 0.0 0.0 0.00 0.49 0.00 89 1010.3
20260905223022 53 330 0.0 0.0 0.00 0.49 0.00 88 1010.1
20260905221517 54 330 0.0 0.0 0.00 0.49 0.00 89 1009.8
20260905220015 54 331 0.0 1.0 0.00 0.49 0.00 90 1009.6
20260905214514 54 332 0.0 6.0 0.00 0.49 0.49 92 1009.5
20260905213010 53 283 0.0 3.0 0.00 0.49 0.49 93 1009.2
20260905211523 53 285 0.0 3.0 0.00 0.49 0.49 95 1008.9
20260905210010 52 303 0.0 0.0 0.00 0.49 0.49 95 1008.6
20260905204505 52 291 0.0 0.0 0.00 0.49 0.49 94 1008.4
20260905203002 52 291 0.0 0.0 0.00 0.49 0.49 94 1008.2
20260905201559 52 291 0.0 0.0 0.00 0.49 0.49 94 1008.0
20260905194556 53 291 0.0 0.0 0.00 0.49 0.49 94 1007.5
20260905193053 53 291 0.0 0.0 0.00 0.49 0.49 93 1007.4
20260905191557 54 291 0.0 0.0 0.00 0.49 0.49 93 1007.1
20260905190050 55 291 0.0 0.0 0.00 0.49 0.49 93 1007.0
20260905184557 55 291 0.0 0.0 0.00 0.49 0.49 93 1006.8
20260905183047 56 291 0.0 0.0 0.00 0.49 0.49 92 1006.5
20260905181544 57 291 0.0 0.0 0.00 0.49 0.49 91 1006.3
20260905180047 58 291 0.0 0.0 0.00 0.49 0.49 91 1006.0
20260905174539 58 291 0.0 0.0 0.00 0.49 0.49 90 1005.7
20260905173054 60 291 0.0 0.0 0.00 0.49 0.49 88 1005.4
20260905171535 61 291 0.0 0.0 0.00 0.49 0.49 86 1005.1
20260905170033 62 291 0.0 0.0 0.00 0.49 0.49 83 1005.0
20260905164532 64 291 0.0 0.0 0.00 0.49 0.49 81 1004.7
20260905163028 64 291 0.0 0.0 0.00 0.49 0.49 81 1004.5
20260905161526 64 290 0.0 0.0 0.00 0.49 0.49 81 1004.3
20260905160024 64 313 0.0 0.0 0.00 0.49 0.49 83 1004.0
20260905154522 63 314 0.0 0.0 0.00 0.49 0.49 85 1003.9
20260905153021 62 329 0.0 0.0 0.00 0.49 0.49 87 1003.6
20260905151521 60 314 0.0 0.0 0.00 0.49 0.49 88 1003.4
20260905150015 60 316 0.0 0.0 0.00 0.49 0.49 92 1003.1
20260905144522 58 326 0.0 3.0 0.00 0.49 0.49 94 1003.0
20260905143012 57 316 0.0 1.0 0.00 0.49 0.49 94 1002.8
20260905141511 56 339 0.0 3.0 0.03 0.49 0.49 94 1002.6
20260905140009 56 302 0.0 0.0 0.04 0.49 0.49 94 1002.4